Theta_e
305 304 304 304 304 303 303 303 303 303 303 304 304 304 304 305 305 306 308 311 312 312 312 311 311 311 312 313 312 312 312 311 311 311 310 311 311 312 312 313 315 316 317 319 319 319 318 319 319 320 320 321 322 322 322 323 324 326 325 325 328 328 325 318 314 320 324 324 325 324 324 323 320 320 323 322 321 319 317 318 318 315 313 314 313 312 318
305 304 304 304 303 303 303 303 303 303 303 304 304 304 304 304 304 306 310 312 312 314 314 313 312 313 313 312 312 312 312 311 311 311 311 312 311 311 312 312 313 314 315 316 317 317 316 316 318 319 318 319 320 320 321 322 324 325 325 327 326 323 323 321 315 316 320 320 321 321 321 321 319 319 323 323 323 323 321 321 320 316 313 315 314 312 317
305 304 304 304 304 303 303 303 303 303 303 304 304 303 303 304 306 308 311 314 313 314 315 314 314 316 315 315 315 315 314 313 312 313 313 312 312 312 312 313 313 314 314 315 316 316 315 315 317 317 317 318 319 320 320 322 322 323 329 332 326 323 325 323 316 314 316 316 315 316 317 319 320 320 321 322 322 322 320 316 314 313 315 316 314 313 319
305 305 304 304 304 304 304 303 303 303 303 304 304 303 303 304 307 308 310 313 314 313 314 313 314 315 315 315 316 315 315 315 313 313 313 313 313 313 313 313 313 313 314 314 314 315 316 315 316 318 319 318 319 321 321 322 323 327 331 332 329 327 328 326 321 317 317 316 319 324 324 318 316 317 319 321 322 322 320 314 310 314 316 315 317 319 319
305 305 305 304 304 304 304 304 303 303 304 303 303 304 304 304 306 308 310 312 313 312 313 313 313 313 314 315 315 315 316 317 316 315 314 313 313 313 314 314 314 313 315 314 314 315 316 316 316 318 320 320 321 323 323 323 326 329 330 330 333 331 326 327 327 323 322 324 326 328 327 320 317 318 318 320 323 322 318 312 314 319 315 311 321 326 320
305 305 305 305 305 305 305 305 304 303 303 303 303 303 303 305 306 308 310 310 310 310 311 312 310 310 311 313 314 315 315 316 317 317 316 315 314 313 314 314 314 315 315 315 315 316 316 316 317 318 319 320 321 322 322 323 325 328 327 329 336 333 325 327 328 324 325 328 327 327 327 325 323 322 319 321 322 321 317 315 319 322 315 313 323 327 324
304 305 305 305 305 305 305 305 304 304 303 303 304 303 303 304 305 306 308 307 308 308 308 307 307 307 309 311 313 314 314 315 316 317 319 318 316 314 314 314 313 314 315 316 318 318 316 316 317 319 319 319 320 321 321 322 323 326 326 330 337 334 328 331 329 324 325 327 327 327 326 324 323 323 323 324 323 322 320 320 322 322 319 321 326 327 328
304 304 304 304 304 304 305 305 304 305 304 303 304 303 302 303 304 304 305 305 305 305 305 305 307 308 309 310 311 312 314 315 316 317 319 320 320 318 317 316 315 315 314 315 318 320 319 318 319 321 320 319 320 320 321 322 323 325 327 331 335 331 329 333 329 321 321 326 328 326 326 324 321 321 325 325 323 322 321 321 323 323 321 324 325 324 328
304 304 304 304 304 304 304 305 304 305 304 304 304 303 303 303 303 303 303 304 305 306 306 307 308 308 308 308 310 311 313 314 315 315 316 318 320 320 318 319 321 322 320 317 318 321 323 323 324 324 323 321 321 321 322 323 324 326 329 332 334 331 329 332 329 318 317 324 326 325 325 323 319 318 322 324 322 321 321 323 324 322 321 323 320 318 324
304 304 304 304 304 304 304 305 305 304 304 305 304 304 304 303 303 303 303 304 305 306 306 306 307 307 306 308 311 312 313 312 312 314 316 317 318 319 318 318 320 323 325 324 323 322 322 323 323 323 324 324 323 324 325 325 326 328 331 332 333 334 331 330 326 317 316 321 324 322 321 318 315 317 323 325 324 324 323 324 326 326 324 322 318 320 327
304 304 304 304 304 304 304 304 305 305 305 305 305 304 304 304 303 303 302 303 304 305 305 306 307 307 308 309 310 309 310 310 309 312 315 316 316 316 315 316 318 322 324 323 321 319 318 319 320 321 323 324 325 325 325 325 326 328 331 333 333 334 333 332 329 321 317 320 323 322 319 314 316 323 327 327 326 326 324 324 326 326 326 325 324 327 331
304 304 304 304 304 304 303 303 304 305 305 304 304 305 305 304 303 303 302 303 304 304 305 306 306 307 307 307 307 307 307 308 309 310 312 313 313 313 314 316 318 321 321 318 316 317 318 321 322 323 324 324 325 326 325 325 326 326 329 332 333 333 332 332 332 325 320 320 322 319 316 318 325 332 332 329 328 327 326 327 328 327 327 327 328 330 330
304 304 305 304 304 304 303 303 303 305 305 304 304 305 305 304 304 304 303 303 303 303 304 304 305 306 306 307 307 307 308 309 310 310 310 311 311 312 314 315 316 318 317 314 315 318 322 326 327 326 327 327 327 327 327 327 326 326 327 328 332 334 332 331 330 327 324 322 320 319 321 325 329 334 335 333 332 330 326 324 326 327 328 328 329 330 329
304 305 304 304 304 303 303 302 303 304 304 304 304 304 304 305 304 304 304 303 303 303 303 304 305 305 306 307 308 308 310 310 310 309 310 311 311 312 313 314 315 315 314 314 317 322 326 328 328 327 327 327 326 326 328 328 327 327 327 327 330 333 332 331 328 328 328 322 317 320 323 324 329 337 340 339 338 338 333 328 329 330 328 328 329 330 328
304 304 304 303 304 303 302 302 303 304 304 304 304 304 304 304 305 305 304 304 304 303 303 303 304 305 307 307 308 308 309 309 309 310 311 311 312 312 313 313 313 312 312 315 320 326 329 327 325 324 323 323 323 323 325 328 328 327 327 328 329 330 333 333 328 326 328 323 321 323 320 320 329 339 341 339 336 339 340 334 333 334 330 328 329 331 331
304 304 304 303 304 304 303 303 303 303 304 304 304 304 304 304 305 305 305 304 303 304 304 304 304 305 306 306 307 308 308 309 310 311 312 313 313 313 312 311 311 312 314 318 323 328 330 328 325 323 322 322 321 320 322 325 325 326 327 328 329 329 332 335 329 325 324 323 325 325 320 324 339 342 339 338 335 337 339 330 327 334 338 334 329 329 333
304 304 304 303 303 304 304 303 303 303 304 304 304 304 304 304 304 305 304 304 304 304 303 303 303 303 304 305 306 307 308 309 311 312 313 313 312 312 312 310 311 314 316 319 325 330 331 329 327 324 324 326 323 321 322 322 321 324 326 328 330 331 332 331 326 321 322 323 324 323 322 332 344 340 336 337 336 338 335 323 325 340 348 344 341 338 335
304 304 303 303 303 304 304 303 302 302 303 304 304 304 304 304 304 304 304 304 304 304 303 303 304 303 304 305 307 308 309 309 311 311 311 311 312 313 312 310 312 317 318 320 327 331 331 330 328 325 326 329 327 324 323 321 320 324 328 329 329 328 328 328 324 321 322 323 322 322 327 338 343 338 337 337 335 335 330 325 333 347 347 343 344 344 342
304 304 303 303 303 303 304 303 302 302 303 303 304 304 304 304 304 304 304 304 304 304 304 304 304 304 304 305 306 307 308 309 310 310 309 311 312 311 310 311 313 314 315 319 326 331 331 330 329 328 329 333 332 328 327 325 324 328 330 328 326 326 327 326 323 321 321 322 323 323 328 338 341 337 337 337 334 332 332 336 343 346 344 344 344 341 342
304 304 303 303 303 303 304 303 303 303 303 304 304 304 304 304 304 304 304 304 304 304 304 304 304 304 304 304 304 306 307 307 309 309 309 311 311 308 311 317 316 313 316 323 328 330 331 332 332 330 331 335 336 333 332 332 331 332 332 329 328 328 325 320 321 323 322 322 324 324 328 336 339 337 338 340 338 337 339 343 346 344 344 347 347 344 343
304 304 303 303 303 304 304 303 303 303 303 303 303 303 304 304 304 304 304 304 305 305 304 304 305 305 305 304 304 305 305 306 307 308 308 310 310 308 312 316 313 312 317 324 328 330 330 331 333 331 331 334 336 334 333 336 337 337 335 333 332 331 326 320 322 325 322 319 324 329 334 338 338 337 339 341 339 338 340 342 345 345 345 347 350 350 348
303 304 303 303 303 303 303 303 303 303 303 303 303 304 304 304 304 304 304 304 304 304 304 304 305 304 304 305 305 305 305 305 306 307 307 308 309 309 309 309 310 311 313 318 325 329 328 329 331 332 333 333 334 335 337 337 337 339 338 334 333 337 337 331 331 331 328 326 331 338 341 340 337 337 339 338 335 335 336 339 341 343 344 346 349 352 351
304 304 303 303 303 303 303 303 303 303 303 303 303 303 304 304 304 304 304 304 304 304 304 304 304 304 304 305 305 305 306 305 305 305 305 306 307 308 307 307 309 312 313 316 320 323 326 328 328 330 333 334 333 336 337 336 337 340 340 336 334 337 339 337 338 338 337 337 340 342 341 340 337 335 335 333 332 332 334 337 339 340 342 344 345 347 349
303 303 303 303 303 303 303 303 303 303 303 303 303 304 304 304 305 304 304 304 304 304 304 304 304 304 305 305 305 305 306 306 305 305 305 305 305 306 309 310 310 312 315 316 315 316 322 326 325 328 332 333 333 336 337 337 338 339 339 339 338 335 333 334 338 337 333 336 340 341 340 341 338 335 334 332 331 332 332 335 338 338 339 340 342 343 344
303 303 303 303 303 303 303 303 303 303 303 304 304 303 303 304 304 305 304 304 304 303 304 304 304 304 305 305 305 305 305 306 307 307 306 306 305 305 308 311 311 312 314 315 314 315 319 323 324 327 330 330 331 335 335 335 336 336 338 340 339 335 334 336 339 339 337 339 343 341 339 337 334 333 333 333 331 331 331 333 335 335 336 338 339 340 341
303 303 303 303 303 303 303 303 303 304 304 304 304 304 304 304 305 305 304 304 304 304 303 303 303 304 305 305 305 306 306 306 307 308 308 308 307 306 308 309 311 312 313 312 313 315 317 320 323 326 327 328 330 332 333 332 332 334 338 335 332 332 336 337 338 339 340 341 341 340 339 337 332 330 330 330 330 331 331 332 332 333 335 336 337 337 338
303 303 303 303 303 303 303 303 303 303 303 303 304 304 304 304 305 305 304 304 304 304 303 304 304 304 304 305 305 305 306 306 306 307 308 309 309 309 309 309 310 311 312 313 314 315 316 318 321 323 326 327 327 328 330 331 332 334 336 332 329 332 337 337 337 338 339 340 340 339 341 341 335 331 330 329 329 330 331 331 331 332 333 335 335 335 335
303 303 303 303 303 303 303 303 303 303 303 303 304 304 304 304 305 305 304 304 304 304 303 303 302 303 305 306 306 307 307 307 307 308 308 308 309 310 310 310 311 311 312 314 315 316 316 316 317 320 324 326 327 328 329 331 333 334 333 330 330 333 334 335 337 336 335 335 337 337 338 337 333 331 331 330 329 329 330 330 330 330 331 332 332 333 333
303 303 303 303 303 303 303 303 303 304 304 304 304 305 305 305 305 305 305 304 304 303 303 303 303 305 307 308 308 308 308 308 308 309 309 309 309 310 310 311 311 312 312 314 316 316 315 314 314 316 320 324 326 328 329 332 333 333 331 329 330 332 331 331 333 334 331 331 332 334 333 331 329 329 330 330 329 328 328 329 329 328 328 329 330 330 330
303 303 303 303 303 303 304 303 304 304 304 304 305 305 304 305 304 304 305 305 304 303 303 304 305 306 307 307 308 309 309 309 309 309 310 309 309 310 311 312 313 313 313 314 315 315 314 314 314 315 316 319 322 326 329 331 331 330 329 329 330 330 330 329 330 331 330 329 330 330 329 328 327 327 328 329 328 328 328 329 329 328 326 326 328 329 328
303 303 303 303 303 303 303 303 304 304 303 304 305 304 304 306 305 303 303 305 304 303 304 305 305 306 307 308 309 309 310 311 311 310 310 310 310 311 312 313 314 314 315 316 315 314 314 314 314 316 317 318 321 326 328 330 330 330 329 328 328 329 329 329 328 329 329 329 328 327 327 327 327 327 326 327 328 328 328 328 328 328 327 325 326 327 327
303 303 303 303 303 303 303 303 304 303 303 304 305 304 303 305 304 303 303 304 304 304 304 305 306 307 308 310 310 310 311 312 312 311 311 311 311 312 313 313 314 314 315 315 315 314 314 314 315 316 319 320 322 324 326 328 331 330 328 327 327 326 327 327 326 326 326 327 328 329 329 327 328 328 327 326 326 327 327 327 328 328 328 327 326 327 328
303 303 303 303 303 303 303 303 303 303 303 304 304 303 303 303 303 303 303 304 304 304 305 306 307 308 309 309 310 312 312 312 313 313 313 312 312 312 313 314 314 314 314 314 314 314 314 315 316 319 321 322 323 325 326 328 329 327 325 325 326 325 325 324 324 324 323 323 325 327 327 325 324 325 325 325 325 325 325 324 325 325 325 326 325 325 326
303 303 302 303 303 302 302 302 302 303 303 303 304 304 304 304 305 304 303 304 305 305 305 306 307 308 308 310 312 312 312 313 314 314 314 315 314 313 314 314 314 314 314 313 313 314 315 315 318 322 323 323 324 327 328 327 326 325 323 323 324 324 323 322 321 321 321 320 321 322 323 323 323 324 325 325 325 325 324 323 322 322 323 325 325 324 324
302 302 302 302 301 302 302 302 303 303 304 304 305 305 304 305 306 305 303 304 306 306 306 307 308 308 309 311 314 312 311 313 315 314 315 316 313 312 313 313 312 313 314 314 313 314 316 318 320 323 324 325 327 327 327 326 325 324 323 323 323 323 323 322 320 319 318 318 318 320 321 322 322 322 322 323 324 324 323 323 322 322 322 324 324 324 325
301 301 302 302 302 303 304 304 304 304 304 305 306 306 305 306 307 306 304 304 306 306 307 308 308 308 308 311 312 311 310 313 314 314 314 314 313 312 312 312 312 313 314 314 314 316 318 320 323 324 324 326 327 326 324 324 324 324 323 321 321 321 322 321 320 318 317 317 318 320 321 321 321 321 321 321 323 325 325 325 324 323 323 324 325 325 325
302 302 303 304 305 305 306 306 306 306 305 305 305 306 306 307 308 307 306 306 306 306 306 307 307 308 307 308 309 310 311 314 314 313 313 314 312 312 312 313 313 313 314 316 319 320 321 323 324 326 326 326 325 324 323 323 323 322 321 320 320 320 320 321 320 320 320 319 319 321 322 322 322 323 323 323 324 326 326 326 326 325 325 325 325 325 325
303 304 305 306 307 307 307 307 307 306 305 305 306 307 308 308 308 308 308 308 307 307 307 307 308 308 307 308 310 311 312 315 315 314 315 314 313 314 314 315 315 315 318 321 322 323 324 325 325 326 326 325 323 323 323 322 321 320 320 320 320 320 320 321 321 322 322 322 322 323 324 324 324 324 325 325 326 326 326 326 327 326 325 325 325 326 326
305 306 307 308 307 307 307 308 306 305 305 306 308 309 309 308 308 308 308 308 309 309 308 308 309 309 308 310 313 312 311 314 316 316 315 314 315 316 316 316 316 318 321 323 322 322 326 326 325 326 326 325 324 324 323 322 322 321 320 319 320 319 319 320 321 322 323 324 323 323 324 325 325 325 325 325 325 325 325 325 325 325 325 325 325 325 325
305 306 306 307 307 307 307 306 305 306 307 308 308 308 308 309 309 310 310 310 311 310 309 310 310 310 309 310 313 313 312 313 316 318 318 317 316 317 318 319 319 320 322 323 322 323 325 326 325 326 326 325 324 324 323 323 323 323 321 321 321 321 320 321 322 323 323 323 323 323 323 324 324 324 324 324 323 323 323 323 324 325 325 325 325 324 324
305 305 305 306 306 305 305 306 306 307 308 308 308 308 309 309 309 310 310 312 312 311 310 312 313 312 311 311 312 314 314 314 315 317 319 318 317 318 321 321 321 322 323 323 323 323 324 325 326 326 325 324 324 323 323 324 323 323 323 323 323 323 322 322 323 324 324 324 324 324 324 323 323 323 323 323 322 323 322 322 323 324 325 324 324 323 323
304 304 304 305 305 305 306 307 308 308 308 308 308 308 308 309 310 310 311 312 312 311 311 312 312 312 312 311 311 313 315 314 314 317 320 319 318 320 322 322 322 324 324 322 322 324 325 325 326 326 323 322 323 323 323 323 323 322 323 323 323 323 323 323 323 324 325 324 324 324 324 324 324 323 324 323 323 323 323 322 323 323 323 323 323 323 323
305 304 304 305 306 307 308 307 307 307 308 307 307 308 310 310 311 312 312 311 312 312 312 312 312 313 313 313 313 314 315 315 316 318 320 319 319 321 323 323 324 323 320 319 322 326 326 325 325 324 323 322 322 323 322 323 323 322 322 322 322 323 323 323 322 323 324 324 324 324 324 324 324 323 323 323 323 322 322 322 322 322 323 323 323 323 324
306 305 305 306 306 307 308 307 307 308 310 309 309 310 312 311 311 313 313 313 313 314 312 311 313 314 315 314 315 317 317 316 317 318 319 319 320 322 323 324 323 320 319 320 324 326 324 322 321 321 321 322 322 321 321 322 322 322 321 321 321 322 322 322 321 321 322 322 323 323 323 324 323 323 323 323 322 321 322 322 322 322 322 323 323 324 324
307 306 306 306 306 306 307 308 308 309 311 311 311 310 311 311 311 312 312 312 313 314 313 312 313 315 316 315 316 316 317 317 318 318 319 320 321 321 322 322 320 319 322 325 326 324 322 320 319 320 321 322 321 321 321 321 321 321 320 320 320 321 321 321 322 321 320 321 322 322 322 322 322 322 322 322 321 321 322 322 322 322 322 323 323 324 324
307 306 306 307 307 306 307 308 308 308 310 311 310 310 310 311 312 312 311 310 312 313 313 313 315 316 317 317 317 316 316 317 318 318 319 321 322 319 318 319 319 319 321 324 325 323 322 322 321 321 322 322 321 321 321 320 320 320 320 320 320 321 320 321 321 321 321 322 322 322 322 322 322 322 321 321 321 322 322 322 322 322 322 323 323 323 324
306 304 305 307 308 307 307 309 309 309 308 308 308 309 309 309 309 310 308 306 306 309 312 314 315 316 316 317 317 316 316 317 318 318 319 321 321 318 317 318 319 319 321 323 324 323 323 323 323 322 322 321 321 321 321 320 320 320 320 320 320 320 320 320 321 321 321 322 322 321 322 322 322 322 322 322 322 322 322 322 322 322 322 323 323 323 323
303 302 305 307 308 308 309 310 309 307 307 307 307 308 308 308 309 311 311 308 307 310 313 316 317 317 316 315 316 316 317 318 318 317 317 319 319 317 317 319 320 320 321 322 322 323 323 324 324 323 321 321 321 321 320 319 319 320 319 320 320 320 320 320 320 321 321 321 320 321 322 322 322 321 321 321 321 321 321 321 321 321 321 322 322 322 322
302 303 306 309 309 309 311 310 307 308 310 311 310 310 311 312 313 314 314 313 313 314 315 315 316 316 315 315 316 317 318 319 318 317 317 319 319 318 318 320 321 321 321 322 322 322 323 324 324 323 321 320 320 320 319 319 319 319 319 319 320 320 320 320 320 321 321 321 320 321 321 321 320 319 319 319 320 320 320 320 320 320 320 321 321 321 321
305 306 308 310 310 311 312 311 310 311 312 313 312 312 314 314 315 315 314 315 316 316 315 314 314 314 315 315 315 316 317 319 319 318 319 320 320 320 321 321 320 320 321 322 322 322 323 324 324 323 322 321 320 320 319 319 320 320 320 320 322 323 322 321 320 321 320 320 320 320 320 319 319 318 318 318 318 318 318 318 318 319 319 318 318 319 318
308 308 309 310 311 311 312 313 313 313 313 313 312 313 314 314 315 315 315 316 318 318 317 316 315 314 315 315 315 316 318 320 320 321 321 321 321 321 321 320 318 320 322 323 322 322 323 324 324 323 323 322 322 321 321 321 321 321 321 322 323 323 323 322 321 321 320 320 320 320 319 319 319 319 319 318 317 316 315 316 317 317 317 316 317 317 317
309 309 310 310 310 311 312 313 312 313 313 313 312 312 314 315 315 315 316 317 318 318 318 317 317 317 317 316 316 318 320 320 321 321 321 321 321 321 321 319 320 321 322 322 322 322 323 323 324 323 323 323 322 322 323 322 321 321 322 323 323 323 323 323 323 322 320 320 319 319 319 319 320 319 319 318 316 315 316 316 315 315 315 315 316 316 316
Wind_Speed
22 22 22 21 21 21 20 19 18 19 19 19 19 15 9 5 8 12 10 5 8 6 7 8 8 9 9 12 13 11 9 11 12 12 13 13 11 12 12 14 15 13 12 12 11 10 9 10 11 9 7 9 9 3 2 7 11 11 10 12 12 9 6 8 10 8 9 13 14 15 17 18 17 15 15 16 16 16 14 12 11 11 13 13 13 13 10
22 22 22 21 21 19 19 18 17 16 16 16 17 11 6 6 9 10 6 6 8 7 6 7 8 9 11 12 13 12 11 12 12 12 13 12 11 12 13 13 14 14 13 14 13 12 10 10 11 11 9 8 10 10 7 7 9 9 7 7 9 9 8 8 9 8 8 11 12 12 13 14 13 13 17 18 20 22 19 14 12 12 15 17 15 12 10
22 22 21 21 20 18 18 18 16 15 14 14 13 9 6 7 7 6 6 8 9 7 6 7 7 8 10 11 12 12 11 12 14 14 13 12 12 12 12 13 14 14 14 15 15 14 12 10 9 10 10 9 10 12 10 9 11 8 2 3 4 9 9 9 10 10 10 11 11 10 11 12 11 14 19 21 24 25 19 13 13 13 14 17 15 11 11
22 22 21 20 19 18 17 17 15 14 13 12 12 10 7 6 5 5 5 7 7 7 7 8 8 7 8 8 10 11 11 11 13 15 14 14 14 12 11 12 14 15 16 15 15 17 16 12 10 9 9 9 9 9 8 9 10 5 6 7 5 7 8 11 13 14 12 11 10 10 11 12 14 17 21 21 22 25 20 13 13 12 11 14 15 13 14
21 21 20 19 18 17 17 16 15 13 12 11 12 10 6 4 5 5 4 3 6 7 7 7 7 7 7 6 7 10 10 9 10 13 13 14 15 13 12 13 13 14 16 15 14 15 16 15 14 12 10 9 7 7 7 9 8 5 7 8 7 6 8 13 17 19 18 16 14 13 14 15 17 19 21 20 19 22 21 18 16 15 12 13 14 15 17
22 21 20 19 19 18 16 15 15 13 11 11 10 7 6 5 6 5 5 5 6 6 4 5 7 9 10 8 8 11 11 10 9 9 11 13 15 12 12 16 17 16 15 13 12 14 14 14 15 13 11 10 9 7 9 11 11 9 10 9 7 7 9 13 17 20 22 22 20 18 16 15 17 19 20 21 22 22 21 21 22 20 14 13 14 16 19
23 22 21 20 20 20 17 15 14 12 12 11 10 7 6 6 6 5 5 5 7 9 10 11 11 12 11 8 9 11 12 13 11 7 7 11 13 13 13 16 18 19 18 13 11 12 12 12 14 13 12 12 11 9 9 11 13 12 11 8 7 7 9 13 17 19 21 24 23 23 21 18 19 20 21 22 24 25 23 22 24 24 21 19 18 19 19
23 23 22 21 21 21 19 17 14 12 12 11 9 8 7 5 5 5 5 6 8 9 10 10 9 9 9 8 9 10 12 13 10 7 8 9 9 12 14 15 15 18 20 17 15 14 13 12 12 11 12 13 11 9 8 9 12 14 11 7 7 7 8 11 13 14 17 21 22 23 23 22 21 21 22 23 23 24 25 23 22 22 22 23 23 22 18
23 23 22 21 20 19 19 18 14 11 11 11 8 7 8 8 8 6 5 6 7 7 8 8 7 6 6 8 7 7 9 8 8 9 10 12 12 10 8 8 8 9 14 17 16 13 11 11 9 6 8 9 8 7 6 7 9 11 10 6 7 8 7 7 8 9 12 17 20 22 22 21 21 21 21 23 22 21 21 20 21 21 20 22 23 19 15
22 22 21 20 19 18 18 18 15 11 11 11 7 5 7 8 8 6 5 6 6 7 7 7 7 6 5 5 5 5 7 8 10 9 8 9 9 7 9 10 8 5 8 9 7 5 6 6 7 6 7 9 9 7 6 6 7 7 8 7 5 5 4 5 7 9 10 14 18 19 19 17 16 16 19 21 21 21 20 20 21 23 21 18 17 15 13
23 22 21 20 19 18 17 18 16 12 13 13 9 6 7 6 5 4 5 7 7 7 7 7 7 6 5 6 7 8 9 11 9 8 7 7 8 11 13 13 8 5 3 3 6 10 10 9 8 8 9 11 12 11 11 11 10 7 7 7 6 5 3 3 4 5 8 10 9 10 14 14 11 11 16 21 22 22 22 20 21 21 19 16 15 14 14
23 22 20 20 19 17 16 17 16 14 16 16 12 10 9 6 5 5 5 7 8 7 7 7 7 8 9 10 10 10 11 11 10 10 11 12 13 13 13 12 9 4 6 10 11 12 11 10 11 10 11 13 15 15 15 17 15 11 9 9 9 8 4 2 3 4 7 8 6 8 12 11 6 5 8 12 16 20 22 21 21 21 20 19 19 18 17
22 21 20 19 18 17 16 16 16 15 16 16 14 13 10 7 6 5 4 7 8 7 7 9 10 12 12 12 12 11 10 10 10 12 13 13 13 12 10 9 9 8 10 13 14 11 8 8 10 11 12 13 13 15 18 19 18 15 14 12 11 10 7 3 2 3 5 6 9 10 9 6 6 3 2 4 9 14 17 19 22 22 21 20 20 20 20
21 20 19 18 17 16 15 15 15 16 16 15 16 16 12 9 8 5 3 6 7 8 8 9 10 10 10 9 10 9 9 9 10 10 11 11 11 11 9 8 9 10 10 11 10 7 6 6 7 9 11 11 11 13 16 17 18 19 18 14 11 10 9 6 3 3 4 6 8 8 6 7 7 2 5 5 4 6 8 10 14 18 20 19 18 20 21
20 19 19 18 16 15 15 14 14 14 14 15 17 18 15 12 10 7 4 4 7 8 8 7 8 9 9 10 10 8 7 7 6 7 9 9 8 8 8 8 10 11 10 9 7 6 6 8 9 10 10 10 11 10 11 12 14 19 20 15 12 11 10 8 6 4 3 4 5 7 8 7 3 3 5 6 6 7 6 6 8 13 17 20 19 19 19
19 18 18 17 15 14 14 14 14 14 13 13 16 18 16 14 13 10 6 4 5 6 5 6 9 9 9 9 9 8 7 5 5 6 6 5 5 7 9 11 11 10 9 7 5 5 6 9 10 9 9 11 11 10 10 10 10 15 18 18 16 14 11 9 9 8 6 5 5 7 9 4 3 5 6 7 5 4 4 6 9 9 11 16 19 21 20
17 17 17 16 15 14 13 13 14 14 13 13 15 16 15 15 15 12 7 4 5 7 9 11 11 9 7 7 7 6 5 5 5 5 4 5 7 8 10 12 8 6 8 8 5 5 7 9 10 9 9 10 10 10 11 11 10 13 17 18 16 13 11 10 11 10 8 7 7 7 5 1 6 8 9 7 3 1 4 9 6 5 11 12 12 16 18
16 15 16 15 14 13 12 12 12 13 12 12 14 16 16 16 17 14 8 5 5 7 9 11 11 8 7 7 7 7 6 6 5 4 5 6 6 7 9 9 5 3 4 6 5 4 7 9 9 8 7 7 8 9 10 11 12 12 14 14 13 12 11 11 12 11 9 8 8 7 4 2 6 9 9 6 3 5 7 6 3 8 13 12 11 12 13
15 15 15 14 13 13 12 11 11 11 12 11 13 15 14 14 17 16 9 4 5 6 9 11 12 11 10 8 7 6 6 6 5 4 6 4 4 10 10 6 2 3 3 5 4 4 6 7 6 6 6 5 5 5 6 9 10 11 14 14 12 11 10 10 11 12 10 9 8 8 6 2 5 7 5 4 4 5 3 5 8 10 12 10 8 10 10
13 14 14 13 13 12 11 11 10 10 10 11 13 13 11 12 16 17 12 6 5 8 11 13 13 14 12 11 11 9 7 7 5 5 6 4 6 10 6 4 1 4 4 4 5 4 4 5 5 4 3 2 3 3 3 5 3 5 11 13 11 10 10 10 11 10 9 9 9 8 6 3 5 5 3 4 4 5 6 9 10 9 9 9 7 5 6
13 13 13 12 12 11 11 10 10 9 9 10 12 12 11 11 14 17 18 13 7 6 8 9 11 13 14 14 14 13 11 11 9 6 6 6 5 5 3 1 4 4 2 3 4 2 1 2 4 3 1 1 3 3 2 4 2 1 4 7 9 9 8 8 8 8 9 11 9 5 3 6 5 4 3 3 4 7 8 8 8 7 7 6 4 3 2
12 12 13 12 11 10 10 9 9 9 9 9 11 12 11 12 13 15 18 16 11 10 13 16 18 21 22 22 21 20 18 16 14 10 7 6 5 4 4 6 6 3 2 4 3 2 3 2 2 1 1 2 2 3 1 3 4 3 2 4 4 3 1 3 4 6 5 4 2 3 5 6 7 7 6 5 5 7 7 6 5 5 5 5 4 5 5
11 11 12 11 10 10 9 8 8 8 8 8 11 12 11 11 10 10 11 11 11 12 17 21 21 20 21 22 23 23 22 21 20 19 14 8 6 6 6 7 5 2 2 3 4 4 5 4 3 2 1 0 2 3 3 2 2 2 1 2 3 6 4 3 3 3 2 2 5 6 5 5 8 10 10 8 7 8 7 7 6 5 4 5 7 8 9
10 10 11 10 9 9 8 7 8 7 7 8 10 12 12 10 7 6 7 7 6 7 11 13 12 10 11 13 13 14 17 19 20 21 19 14 9 6 4 4 3 2 1 2 5 6 6 4 4 3 2 1 2 3 2 1 1 2 2 2 4 7 6 2 1 2 3 3 4 5 5 6 8 10 11 10 8 8 8 7 7 7 6 7 11 14 13
9 10 10 9 8 8 7 7 7 6 7 8 9 11 12 10 7 7 8 7 5 5 7 8 8 9 11 13 12 11 12 13 14 15 18 19 16 11 5 2 2 3 3 4 5 6 5 3 3 3 1 1 2 2 1 1 1 2 2 1 2 5 6 4 1 1 1 3 5 5 7 9 10 9 9 8 7 8 10 9 9 10 10 10 14 16 15
9 9 9 7 7 7 7 6 6 6 7 7 7 9 11 9 7 8 9 7 5 5 7 8 9 9 10 12 13 12 11 11 12 14 17 19 20 19 14 9 8 7 5 5 5 5 5 4 3 3 2 2 3 3 1 1 2 2 2 4 4 5 4 4 2 1 2 4 5 5 6 9 11 10 10 8 7 7 10 11 12 13 13 13 15 17 15
8 8 7 6 6 6 6 6 6 6 6 6 7 8 10 9 8 9 10 8 5 4 6 7 7 8 12 16 18 15 12 13 15 16 18 18 19 20 17 12 8 7 5 5 4 4 4 4 4 3 2 1 3 3 2 2 3 2 2 5 6 5 2 4 3 3 2 2 3 4 4 5 7 8 10 10 8 7 11 13 14 15 14 13 14 16 16
6 6 5 5 5 5 5 5 5 5 5 6 7 9 11 11 11 11 12 10 8 6 6 8 9 12 13 14 13 10 9 13 15 16 18 18 19 19 15 11 8 6 5 4 3 3 4 4 3 2 1 1 2 2 1 2 3 2 2 6 7 4 3 5 3 0 3 3 2 3 4 5 5 6 9 9 7 9 13 14 14 14 14 14 14 15 16
6 6 5 5 5 5 4 4 4 5 5 5 6 9 11 11 10 11 12 13 11 8 7 8 9 9 9 9 10 8 7 11 15 15 15 15 17 16 13 10 8 6 5 4 3 3 4 4 4 3 2 2 2 2 1 2 2 2 5 8 7 4 3 4 2 2 4 4 3 5 6 7 6 6 8 8 7 10 13 14 14 14 14 13 14 14 14
8 7 6 6 5 4 4 4 4 5 5 5 7 8 6 5 3 5 8 12 12 8 6 6 7 6 7 10 10 7 5 8 13 14 14 13 13 12 11 9 7 6 5 4 4 4 4 3 4 4 2 2 4 2 1 1 1 4 8 9 7 5 5 5 4 4 4 5 6 9 10 10 8 8 9 8 8 10 12 12 13 14 13 12 12 13 13
9 7 7 6 5 4 4 5 5 5 5 5 5 4 2 0 1 5 5 5 8 6 4 5 6 7 6 6 6 6 5 6 9 11 12 11 10 10 10 8 5 5 5 4 3 4 4 3 4 3 1 0 3 2 0 1 2 5 7 8 7 6 7 7 7 7 7 6 9 12 13 10 8 9 10 9 9 10 11 11 12 12 11 11 12 12 12
9 8 7 6 5 5 5 6 7 7 6 6 7 7 6 6 7 10 9 4 5 5 3 4 6 5 3 2 4 6 6 7 8 7 8 9 8 8 9 7 5 5 5 4 3 3 3 4 4 2 2 1 2 2 2 2 3 6 7 8 7 8 8 9 9 10 10 8 8 12 13 11 9 9 10 9 10 11 11 11 10 8 7 8 11 12 13
9 9 8 7 6 6 6 6 8 9 9 10 12 11 9 7 10 13 11 6 5 5 3 4 5 4 3 5 5 2 4 6 6 5 6 7 7 6 7 6 5 5 6 5 3 2 3 3 3 1 2 0 1 2 4 4 6 8 9 9 9 9 10 10 10 11 12 12 10 10 10 9 9 9 9 10 10 11 10 9 8 8 7 8 9 10 11
10 9 9 8 7 8 8 9 9 10 10 10 8 4 3 5 7 8 8 7 5 5 3 3 4 4 5 5 1 2 1 2 6 6 5 6 6 6 6 6 5 5 6 5 3 3 2 2 2 2 3 1 1 3 4 5 8 9 8 8 7 7 8 9 10 11 10 10 10 10 9 9 8 9 10 10 10 10 9 8 7 8 8 9 9 9 8
11 10 10 10 10 10 10 9 8 8 8 6 3 1 3 7 8 4 9 10 5 3 2 2 3 4 6 4 2 4 6 3 5 6 4 6 7 5 4 5 4 4 4 4 4 3 2 0 1 2 2 2 2 3 4 6 8 8 7 6 5 4 5 7 8 8 7 8 8 8 8 10 10 10 10 10 10 9 9 8 8 8 8 9 9 7 6
12 11 11 11 10 8 7 6 5 5 4 2 2 4 7 7 5 3 9 10 7 4 3 3 3 4 6 4 1 3 7 3 4 4 2 5 5 4 4 5 4 3 3 4 4 2 2 0 0 2 2 2 3 5 5 6 7 8 9 8 6 5 6 7 6 6 6 8 8 7 7 8 8 7 7 7 7 8 8 8 8 8 8 8 7 6 5
12 12 11 9 6 5 4 2 3 3 5 6 8 9 6 4 3 4 6 7 7 6 3 3 4 4 5 4 2 4 4 0 3 3 3 4 5 4 4 4 4 3 4 3 3 3 3 1 2 4 5 4 5 6 7 6 6 7 9 9 7 6 6 6 5 6 7 6 6 5 5 5 5 5 5 5 5 6 7 7 6 7 6 6 6 5 5
13 10 8 6 4 3 1 1 2 6 11 12 11 7 3 4 4 3 4 4 4 5 4 4 4 4 4 4 4 3 3 1 2 3 4 4 3 4 4 3 3 3 3 4 4 2 2 3 4 5 5 6 6 7 7 6 5 6 7 7 6 5 4 3 3 4 5 4 3 3 3 4 3 3 3 4 4 5 4 4 4 5 5 5 5 4 5
12 8 6 4 3 2 3 4 8 11 12 9 6 4 2 2 2 2 2 2 2 3 3 3 4 4 4 4 3 2 2 3 2 2 4 3 2 3 3 3 2 2 3 4 3 1 2 4 4 4 5 6 6 6 6 5 4 5 5 5 4 4 3 2 3 3 3 3 3 3 2 2 3 3 1 1 2 2 3 3 4 4 4 3 3 2 3
10 7 4 3 3 5 7 10 11 9 6 3 3 2 1 2 2 1 1 1 2 2 2 1 2 4 5 5 4 2 2 2 2 1 2 2 1 1 2 3 2 2 4 4 2 1 3 4 3 4 5 5 4 5 5 5 5 5 4 4 4 4 4 3 1 2 2 3 4 4 3 3 4 4 2 1 2 2 3 3 4 4 3 2 2 1 2
10 7 5 5 8 10 12 11 8 4 3 2 2 2 2 2 1 1 2 1 0 1 1 1 2 2 3 4 4 3 2 2 2 2 0 2 2 1 1 3 2 2 3 3 1 0 2 4 4 3 4 4 4 4 4 5 6 6 6 5 4 4 5 5 4 4 4 4 4 5 5 5 5 4 3 3 3 3 3 4 4 4 3 2 2 3 4
11 10 9 10 11 11 9 6 3 2 2 2 1 2 2 1 1 1 1 1 1 1 1 1 2 4 4 4 3 3 2 2 1 2 0 3 3 2 0 1 1 2 3 3 1 1 2 4 4 4 4 5 5 5 4 5 6 6 6 6 5 4 5 6 6 6 6 6 5 4 4 4 4 4 4 4 4 4 4 4 4 3 3 3 4 5 6
9 7 7 7 7 5 3 2 1 1 2 2 2 2 2 2 1 1 0 0 1 2 1 1 2 3 3 3 2 2 2 2 2 1 1 2 2 0 1 1 1 2 3 2 1 2 4 4 4 4 4 5 5 5 5 5 5 5 5 5 5 5 6 6 6 6 6 5 4 3 3 4 4 4 4 4 4 4 4 4 4 4 4 4 6 7 8
4 3 3 3 2 2 2 2 2 2 2 2 3 3 3 3 3 3 2 2 2 3 2 2 3 4 3 3 2 1 1 2 1 1 1 1 1 1 1 2 2 2 2 1 1 2 4 4 4 4 4 5 5 5 5 5 6 5 5 5 5 6 6 6 6 6 6 5 5 4 3 4 4 4 5 5 5 5 5 5 5 5 5 6 7 7 8
3 2 1 1 2 3 2 2 2 2 3 3 3 4 4 5 4 4 4 3 3 4 4 4 4 4 4 4 2 1 1 0 1 1 1 0 1 2 2 2 2 1 1 2 3 3 4 4 4 4 4 5 5 5 6 6 5 5 5 6 6 6 6 6 6 6 6 5 5 5 4 4 4 5 6 7 7 6 6 6 6 7 7 7 8 8 8
2 2 2 2 3 2 2 2 3 3 2 2 3 3 4 5 5 5 4 4 3 4 5 5 4 4 4 3 1 1 2 1 2 1 2 1 2 2 2 2 1 2 2 2 3 4 5 6 6 5 5 5 4 5 5 5 4 5 5 5 5 6 6 6 6 5 5 5 5 5 5 5 5 6 7 7 7 7 8 7 7 7 8 8 8 8 8
1 2 2 2 2 2 2 2 2 2 2 3 4 5 5 5 5 6 5 3 3 5 5 4 4 3 3 3 2 1 2 2 3 2 2 1 3 2 1 1 2 2 2 3 5 5 5 6 6 6 6 5 4 4 5 4 5 6 6 6 6 6 7 6 6 5 5 5 6 5 5 6 7 7 7 7 7 8 8 8 8 8 8 7 7 7 7
0 1 1 2 1 1 2 2 3 5 6 6 7 7 6 6 6 6 4 5 6 6 4 3 2 1 1 2 1 2 3 3 3 2 2 1 3 2 2 2 3 2 2 4 5 4 4 5 5 6 6 6 5 5 5 5 6 6 6 6 6 6 6 6 6 6 6 6 6 5 5 6 7 7 7 7 7 8 8 7 8 8 8 8 7 8 8
2 0 1 1 2 2 3 4 5 5 3 2 2 3 2 1 2 3 2 1 4 3 3 3 2 0 1 1 2 3 4 3 3 2 1 2 3 2 2 3 3 2 3 4 5 4 4 5 5 5 6 6 5 5 5 5 5 5 5 5 5 4 5 5 6 5 5 6 6 5 5 5 6 7 7 7 7 7 7 8 8 8 8 8 8 8 9
1 1 3 3 2 3 3 2 3 5 7 7 7 7 7 6 6 6 5 3 1 2 2 2 1 1 2 2 2 3 2 3 2 2 2 4 3 2 2 3 3 2 2 4 5 4 4 4 4 4 5 5 5 5 5 5 5 4 4 4 3 2 3 4 4 5 5 5 5 5 5 5 6 7 7 5 4 5 7 8 9 8 8 8 8 8 9
1 2 5 5 5 6 6 6 7 8 9 9 9 9 9 9 8 8 7 5 3 1 1 0 1 2 2 3 2 1 1 1 2 3 4 3 2 2 3 4 3 2 2 4 5 4 4 3 2 3 4 4 4 4 4 4 4 4 3 3 3 3 2 3 3 4 4 4 4 4 5 5 6 6 5 4 4 5 6 8 8 8 8 8 8 8 8
3 3 4 5 6 6 6 6 7 7 8 8 8 8 8 8 8 8 8 6 3 2 2 2 2 3 4 3 1 1 0 1 3 4 4 3 2 3 4 5 2 1 3 4 4 2 2 2 2 3 3 3 3 3 3 3 3 3 3 4 4 4 4 3 2 2 3 3 4 4 4 5 5 5 4 4 4 5 5 5 7 8 8 7 8 8 8
Wind_Direction
312 314 315 314 315 317 321 324 327 331 336 340 338 325 305 276 278 300 306 243 215 238 250 242 236 235 242 250 251 253 253 249 248 243 236 233 229 228 235 237 237 239 237 235 235 231 235 237 230 230 223 219 226 213 187 226 214 202 210 205 196 205 213 215 229 230 219 220 215 206 212 223 226 221 214 216 219 220 225 228 225 227 229 229 238 240 235
310 311 311 311 313 314 318 322 324 328 333 336 334 323 303 295 286 284 272 200 204 235 248 249 249 241 240 246 247 248 248 246 245 242 235 228 227 227 228 230 230 232 233 233 236 232 233 239 235 236 241 231 238 246 235 228 220 201 201 198 184 194 208 208 221 225 215 217 211 199 205 216 223 223 218 218 221 223 227 230 229 233 230 228 235 236 230
308 308 308 308 310 312 314 318 321 323 326 329 328 317 298 294 276 253 226 200 208 239 261 271 279 268 259 259 257 250 245 241 239 241 243 238 233 233 230 228 227 228 229 230 232 232 233 237 233 233 238 235 237 238 230 231 227 211 281 320 198 196 207 205 213 218 209 209 208 199 202 208 217 226 222 219 221 223 225 228 228 232 231 230 235 237 233
307 307 307 307 308 310 310 312 317 317 316 322 321 306 294 296 287 271 238 204 213 242 255 259 262 272 284 282 267 255 248 241 232 233 243 243 239 242 239 230 225 222 225 227 227 228 230 232 234 234 229 224 221 219 218 224 221 223 328 309 237 217 220 209 216 228 224 219 217 212 210 209 212 219 222 223 223 224 227 230 229 230 230 232 237 242 241
305 305 305 306 307 308 306 307 311 310 307 314 313 294 275 273 277 284 291 266 251 241 230 236 247 267 283 289 283 273 267 259 235 223 230 235 234 239 240 233 227 218 216 221 223 223 222 223 226 231 230 223 207 192 201 215 214 231 271 248 220 231 232 213 219 232 236 237 233 221 216 219 218 217 219 222 223 225 228 230 232 234 232 233 234 234 238
301 300 300 301 301 301 300 300 302 301 299 304 304 286 261 259 270 295 317 299 272 265 279 303 301 287 279 275 277 277 273 269 256 230 227 229 225 227 231 228 228 227 221 219 221 219 218 219 222 224 227 230 225 210 213 219 216 222 235 221 206 232 234 219 221 228 232 237 239 234 226 224 225 223 220 220 221 222 226 231 235 235 236 240 234 227 230
298 296 295 297 297 296 294 291 291 291 291 292 293 282 267 266 271 286 299 284 282 296 307 313 304 285 278 270 261 266 266 262 263 260 246 235 224 223 229 227 226 228 228 228 225 219 219 221 220 220 223 227 230 229 224 221 215 220 229 217 201 224 234 228 228 228 228 231 233 235 233 227 228 230 229 227 224 222 224 230 233 234 238 243 241 236 232
299 297 295 295 297 298 296 289 282 283 285 281 273 267 271 282 286 292 300 289 284 288 286 285 283 275 272 266 257 258 260 258 266 279 271 259 239 224 226 233 233 227 225 227 229 227 228 232 226 219 218 219 223 229 232 225 213 213 222 215 197 213 229 229 232 235 231 229 230 232 234 232 231 231 232 233 232 228 226 226 228 232 236 238 239 240 237
301 300 297 295 295 296 295 288 276 272 276 273 266 266 274 286 289 287 292 289 281 279 273 268 271 272 263 259 260 262 264 280 311 301 272 264 264 253 250 274 279 242 224 225 230 234 238 245 248 243 233 232 235 235 234 234 223 213 211 200 192 211 224 226 235 240 230 225 227 229 230 234 235 233 232 233 234 234 232 228 226 228 232 234 235 237 238
302 300 298 296 293 291 292 287 275 263 260 261 262 267 275 282 277 261 264 279 278 277 276 267 264 268 263 268 291 299 298 318 329 307 269 253 268 306 336 332 325 283 234 226 244 296 312 292 289 291 277 268 268 264 253 251 252 232 208 190 181 208 228 222 226 236 231 223 223 225 226 229 231 229 229 232 234 235 237 235 231 227 229 233 233 235 238
301 300 298 297 293 289 290 287 278 262 249 249 251 262 271 276 277 268 267 271 268 266 268 262 256 263 279 300 312 310 307 312 312 296 282 284 305 331 336 324 308 284 283 320 335 332 323 299 283 278 270 265 260 258 255 252 254 246 218 202 190 190 215 237 230 240 236 221 215 225 228 227 229 228 227 229 231 233 236 239 237 232 231 236 241 242 239
299 297 296 295 292 288 287 283 273 257 249 249 252 261 265 260 265 275 269 269 274 272 267 267 272 284 294 298 299 297 295 297 298 289 285 291 300 309 313 306 290 293 348 344 327 317 303 272 251 243 244 248 247 246 245 243 241 236 226 222 214 203 206 236 241 246 234 211 201 225 227 224 237 251 239 238 239 238 239 241 242 240 237 238 242 244 242
297 295 293 292 290 286 285 282 272 258 253 251 247 249 251 239 242 260 267 272 276 272 272 281 285 285 284 282 283 286 288 291 289 281 278 281 290 296 296 292 290 310 339 331 315 308 292 252 228 223 225 229 236 239 237 235 234 230 225 225 223 218 219 232 249 251 236 215 217 228 237 249 258 273 351 309 260 246 244 242 238 237 237 236 236 238 240
295 293 291 291 289 285 282 281 272 260 255 251 245 245 241 227 231 252 267 267 272 277 283 286 282 280 284 288 289 288 291 294 287 277 275 279 285 290 290 294 307 320 323 315 303 284 255 234 220 216 215 214 220 227 226 226 227 224 222 220 216 215 217 221 234 244 237 230 228 231 247 260 254 264 38 16 325 289 275 257 242 237 237 237 236 236 235
293 292 291 290 288 284 280 278 271 261 258 254 248 245 239 229 235 251 255 261 279 284 278 273 283 299 311 309 301 294 295 298 294 289 285 279 279 291 303 313 320 314 303 296 286 259 236 225 217 211 206 204 209 214 212 213 216 216 215 213 211 215 215 209 208 210 226 248 244 236 237 233 200 81 44 13 348 332 321 294 256 242 238 234 232 231 230
292 291 291 290 287 282 277 275 273 268 265 256 248 245 240 230 230 242 254 263 271 277 289 305 307 309 309 298 284 279 285 293 304 307 294 280 296 319 326 326 316 298 290 287 271 255 243 225 218 217 209 203 206 204 195 196 200 202 206 205 206 211 210 205 212 217 223 235 238 239 240 221 88 48 12 355 340 336 319 270 245 248 257 247 235 227 223
291 289 290 291 289 284 277 274 274 272 266 254 245 246 244 232 226 232 244 248 247 263 286 300 298 289 285 287 277 272 286 295 298 307 302 301 317 327 330 330 316 271 274 288 272 243 238 225 218 223 216 205 209 208 196 192 189 187 193 197 198 203 204 206 216 219 219 227 236 248 247 121 51 10 352 342 321 218 231 237 237 327 332 311 277 248 232
291 291 293 293 291 286 281 278 273 266 261 252 245 248 250 239 227 225 234 248 250 261 275 282 284 281 283 295 296 295 309 309 297 302 299 293 313 330 327 328 325 259 266 290 282 248 242 232 221 223 222 212 216 214 198 195 191 180 181 188 193 198 203 212 220 218 216 222 234 251 249 83 28 353 348 340 277 213 215 236 302 336 324 324 318 290 267
290 291 294 294 292 288 282 279 273 262 254 247 243 249 253 237 223 219 222 239 243 255 275 283 282 279 278 281 280 278 288 292 288 301 296 283 355 342 312 282 290 313 283 272 269 248 239 236 225 224 226 220 222 221 205 205 198 178 177 187 195 197 199 210 221 222 223 223 229 241 230 124 18 353 15 18 281 234 251 319 322 315 311 317 314 292 283
289 291 294 292 291 288 281 277 275 266 256 246 240 245 248 234 225 222 222 236 258 264 274 277 275 276 277 271 266 265 267 268 262 271 280 292 359 346 303 206 72 339 296 262 259 235 221 237 236 226 210 215 270 277 218 217 225 187 186 193 195 194 200 210 213 215 221 219 222 234 218 134 30 352 40 42 317 299 329 323 312 318 328 325 315 298 286
289 295 298 295 290 287 282 280 277 270 264 250 240 244 248 239 233 231 229 234 257 273 276 281 282 283 282 274 269 267 263 261 261 272 290 299 326 333 306 313 346 331 310 300 279 247 238 254 242 233 130 140 287 288 194 179 209 267 225 207 195 191 204 220 210 201 215 223 220 219 154 106 73 37 59 51 333 318 319 312 316 339 342 331 342 12 334
291 297 300 298 295 287 281 280 277 270 268 254 237 240 245 237 233 234 232 233 244 262 274 283 285 282 277 271 265 260 258 260 262 265 276 286 284 281 288 304 304 275 284 320 310 300 322 306 264 262 130 153 260 276 209 181 196 205 215 210 193 167 216 270 232 198 214 249 221 114 89 93 94 86 80 63 9 341 330 327 337 349 354 3 30 61 78
293 300 302 301 299 290 282 281 279 270 265 252 234 233 242 240 230 229 237 245 254 266 272 275 276 274 269 263 258 254 252 252 251 247 243 251 270 269 263 272 276 229 246 308 329 329 317 317 327 311 250 89 315 266 232 223 225 223 187 153 86 52 32 288 251 168 141 59 73 91 84 78 88 90 81 62 31 5 358 4 7 1 16 45 58 64 71
296 301 304 302 297 291 285 282 279 271 262 255 241 236 245 255 246 233 243 252 261 277 278 270 265 267 272 274 271 257 244 239 240 240 235 232 243 261 249 232 228 212 232 319 331 320 308 312 321 299 258 22 336 278 226 203 232 285 276 171 99 48 20 298 223 154 174 158 106 100 92 76 73 76 75 65 42 18 7 12 19 19 27 54 65 64 63
300 301 302 301 295 293 293 285 279 274 264 258 253 245 245 249 249 244 247 253 268 289 290 284 280 284 289 289 283 265 245 235 231 230 226 221 223 238 260 283 267 275 316 339 326 311 306 308 303 291 275 299 301 278 167 157 276 331 351 44 52 8 349 326 308 113 144 125 100 95 91 75 60 60 68 61 39 25 18 14 22 29 31 46 60 62 57
302 302 301 298 293 293 295 288 279 274 267 263 261 257 252 249 243 237 242 255 268 269 276 284 283 283 287 284 276 268 256 244 231 224 223 221 221 230 248 273 290 296 309 314 298 291 294 291 277 274 282 292 292 292 281 288 297 305 60 40 342 300 304 335 328 224 133 111 115 126 109 80 63 60 62 49 28 29 30 23 25 30 31 41 57 62 58
307 307 306 302 298 295 295 293 286 277 271 267 262 258 257 255 246 241 249 264 274 268 271 280 290 301 301 290 282 274 254 238 231 227 226 224 222 226 237 251 268 282 292 291 281 269 262 260 256 257 263 271 274 279 295 322 302 263 103 37 351 311 322 347 299 228 178 105 137 147 121 88 72 63 59 48 30 36 45 37 29 28 26 33 50 60 59
321 318 314 309 305 301 300 297 291 284 283 277 264 259 257 252 248 248 251 255 261 272 284 291 299 306 303 292 283 273 242 223 222 223 223 222 221 224 229 237 244 256 269 272 276 273 263 267 281 284 294 293 250 237 229 254 253 226 62 22 359 347 357 343 316 99 36 30 107 110 72 79 93 81 71 58 39 47 55 47 37 33 28 30 42 51 54
338 331 323 317 310 309 312 304 291 290 292 283 274 272 263 250 249 256 250 242 243 257 280 290 291 296 306 307 302 291 248 216 212 215 216 215 217 220 224 228 232 239 252 256 262 273 269 273 288 288 286 296 274 228 186 221 218 86 42 24 13 17 20 1 2 62 42 35 90 105 95 98 96 79 73 66 53 59 61 51 43 40 32 29 37 43 46
345 338 330 325 318 313 314 310 299 296 293 280 275 278 265 232 238 282 261 238 232 242 270 284 288 297 307 303 293 282 243 207 204 206 206 207 212 216 218 222 223 227 240 247 253 271 276 272 274 266 246 262 279 271 186 158 102 63 44 33 30 41 55 51 57 83 80 75 90 99 102 102 95 77 70 65 60 67 67 55 46 42 34 32 36 37 39
346 339 331 326 322 315 313 309 300 294 289 279 273 280 289 200 33 358 331 241 219 228 258 271 278 290 290 272 261 270 266 220 198 197 200 204 210 211 211 215 214 210 224 237 242 256 269 273 269 264 174 180 288 294 320 143 106 73 57 48 44 48 61 67 71 78 82 90 105 105 99 98 100 93 82 74 70 74 74 66 55 43 30 30 38 40 38
345 340 334 329 324 317 313 306 300 294 282 273 272 277 291 294 287 297 309 286 214 220 258 285 287 292 301 295 285 278 254 215 193 190 193 198 205 204 201 208 212 207 222 249 256 246 251 256 260 282 50 18 282 314 28 46 71 72 67 62 58 58 63 67 68 66 57 56 86 101 93 81 79 82 81 79 77 77 81 83 81 71 48 38 41 43 42
346 340 334 329 323 317 308 300 300 297 287 279 276 277 287 296 281 272 270 259 233 233 254 293 296 293 306 317 315 279 208 194 185 183 186 187 191 192 191 198 209 205 211 230 242 240 249 251 241 132 86 212 252 57 56 63 81 83 76 67 61 59 61 61 61 61 55 48 57 71 66 53 51 58 63 63 63 69 77 85 92 92 79 61 49 42 43
336 330 325 320 312 305 300 296 294 290 285 282 280 279 321 339 314 267 224 211 238 257 245 264 294 304 300 292 281 94 15 215 181 178 184 179 182 190 182 180 196 202 197 208 231 237 234 234 193 126 110 120 104 82 81 94 99 93 84 72 62 55 56 54 52 54 54 51 53 51 35 22 24 36 44 47 50 56 61 62 67 73 70 62 52 37 31
325 319 315 311 305 299 297 291 281 276 279 280 279 320 331 329 325 272 194 193 227 277 261 250 284 312 309 289 129 63 352 307 182 176 175 165 176 193 174 164 186 197 181 197 229 224 192 172 136 128 117 92 85 89 98 106 108 108 102 88 68 55 60 61 58 58 56 56 59 49 28 22 27 28 28 31 37 44 49 51 55 61 62 58 49 30 16
320 314 309 308 304 297 288 273 254 252 266 273 298 309 304 305 310 221 192 203 232 271 304 305 287 298 314 320 55 7 333 298 166 157 152 156 171 195 182 170 177 175 169 197 213 182 129 74 139 123 110 87 84 88 92 99 107 111 106 94 80 78 91 95 95 93 81 74 75 68 44 34 33 24 15 15 20 27 37 43 46 49 52 54 45 23 5
318 313 311 309 295 269 259 236 211 238 276 300 311 307 285 247 215 186 188 205 221 227 254 296 287 286 308 316 318 331 331 272 155 159 170 163 160 174 185 179 167 165 177 181 147 103 93 121 126 106 93 86 88 90 89 87 90 95 100 102 101 100 102 103 105 102 88 75 73 72 57 43 29 11 6 17 22 24 29 33 35 37 38 37 33 18 359
329 321 314 304 279 258 271 100 235 277 293 303 306 299 236 198 206 204 192 195 200 199 215 256 269 276 293 289 287 318 340 312 209 178 171 165 155 169 184 172 146 163 167 135 108 89 91 103 101 94 92 92 90 87 83 83 87 92 99 105 107 105 103 92 77 81 81 68 51 48 54 58 53 21 6 17 29 30 26 24 30 36 31 21 17 9 352
343 330 312 298 300 335 355 328 301 298 298 292 278 258 213 211 246 240 191 184 195 203 217 243 264 281 296 299 300 320 325 293 270 180 158 158 158 176 183 159 146 183 168 129 109 111 123 111 104 106 106 99 86 79 78 82 90 95 102 110 109 106 105 78 29 27 40 47 59 67 63 83 117 129 117 46 45 45 44 46 48 50 45 31 16 1 354
350 338 322 313 326 330 324 315 309 305 293 253 240 261 264 233 232 244 226 221 215 208 208 225 255 267 276 286 301 339 6 327 306 268 138 125 114 209 181 147 144 194 171 133 102 113 140 129 121 118 113 100 80 72 75 80 82 81 91 112 119 121 127 122 77 52 64 71 86 101 105 105 114 120 109 71 66 59 59 62 60 57 60 56 45 34 31
342 331 317 312 313 311 309 306 299 276 250 250 265 275 270 245 227 246 260 256 170 120 147 225 273 284 285 284 290 317 354 349 287 276 360 76 44 324 164 134 143 196 159 121 74 280 143 121 105 101 101 93 83 74 72 81 84 79 78 83 92 112 127 125 108 93 91 86 86 91 94 95 95 86 65 58 57 49 49 55 56 55 57 56 51 48 42
310 291 281 288 296 296 294 293 276 241 261 300 284 254 263 275 256 237 247 292 8 57 123 229 302 315 313 300 288 293 320 336 297 275 299 75 56 20 88 141 180 180 121 85 40 174 131 106 98 100 89 78 75 70 64 69 73 72 73 76 77 90 105 105 96 86 80 76 75 77 83 89 86 77 71 74 68 59 55 53 50 49 40 33 39 44 40
314 286 272 280 287 280 272 289 307 276 288 314 317 313 320 329 317 296 283 9 2 9 50 21 339 326 309 293 281 265 270 296 315 320 24 54 45 31 173 132 94 99 82 42 355 153 125 99 94 101 91 75 71 72 76 81 81 78 79 81 81 82 85 89 96 97 92 88 87 81 73 75 74 70 70 71 68 68 67 57 51 51 44 37 41 41 36
319 281 262 265 282 298 316 335 333 329 345 359 355 347 348 356 359 353 2 24 11 356 355 352 348 346 338 322 311 294 248 248 262 40 58 46 12 348 85 75 72 101 109 72 63 98 88 77 83 93 88 80 78 80 84 90 92 93 91 88 89 92 95 97 103 106 104 103 99 88 74 69 69 69 69 63 56 55 57 51 46 49 51 53 55 51 42
309 299 290 318 339 343 358 11 358 354 360 356 349 346 343 336 330 329 343 357 342 319 320 330 325 311 309 309 308 330 350 20 95 66 16 31 70 41 30 50 78 100 112 97 87 87 89 98 111 109 90 79 82 87 89 89 92 98 99 95 92 95 98 100 102 103 103 103 103 101 97 90 81 75 72 66 56 52 51 45 38 39 43 48 51 50 45
360 2 341 357 4 359 4 8 357 353 353 331 309 302 304 305 300 300 318 341 328 290 289 299 299 294 302 306 294 309 329 354 77 48 318 327 80 50 334 318 57 54 39 67 85 97 109 116 119 116 104 92 91 95 96 97 105 112 111 108 109 109 108 106 104 102 102 103 102 99 94 87 81 76 73 68 61 57 54 49 43 42 44 43 41 40 42
28 9 344 19 31 356 344 4 351 301 276 268 266 261 258 262 270 274 274 270 260 257 258 268 283 300 304 293 284 4 15 26 61 44 349 21 87 75 321 349 65 49 40 73 85 98 116 121 118 115 115 116 118 117 114 117 123 122 120 119 119 117 115 114 112 109 106 103 98 91 85 82 80 77 75 72 67 61 57 55 52 51 51 51 48 44 43
32 328 357 61 77 311 306 304 284 271 252 235 238 244 237 232 250 265 247 217 225 237 233 220 232 262 277 279 319 36 38 32 47 42 2 36 80 62 14 48 62 41 56 93 98 102 111 113 112 115 119 124 127 126 124 122 119 118 118 117 114 113 114 114 112 111 109 106 100 93 86 82 79 76 76 76 71 64 59 57 55 54 53 54 55 53 49
141 198 13 102 166 231 249 248 268 290 291 228 240 279 288 265 293 321 340 212 223 229 210 208 225 238 51 22 23 34 26 16 30 36 7 40 66 57 24 52 59 41 61 91 99 100 100 100 101 109 118 122 122 119 117 112 107 105 106 107 108 109 110 109 108 107 104 102 100 98 95 89 80 75 72 70 67 63 57 52 49 48 48 46 46 48 48
163 9 19 28 18 349 333 313 327 355 11 22 22 14 8 7 8 12 14 359 286 219 187 200 214 89 79 61 49 46 24 4 16 40 42 47 52 42 43 56 49 28 69 103 110 110 105 96 92 99 106 107 107 111 110 102 93 89 86 87 92 99 108 115 117 112 104 97 93 92 91 85 77 72 67 63 67 71 64 53 45 42 44 43 42 42 45
342 16 29 29 19 5 358 359 6 8 6 7 11 8 2 0 3 2 352 336 311 231 152 89 80 94 81 60 47 39 316 322 25 53 61 53 20 6 65 76 54 2 51 89 97 100 96 87 86 102 105 98 96 104 104 92 81 74 69 70 75 82 99 118 124 116 107 100 87 78 73 69 67 66 63 55 57 65 63 55 45 39 39 41 38 35 37
356 355 11 21 20 11 3 2 4 3 0 3 6 2 359 360 356 343 335 339 6 45 51 47 53 58 56 53 41 265 248 52 51 52 56 49 17 31 74 92 92 17 46 71 82 90 98 95 93 99 101 98 95 98 98 93 86 73 59 59 63 64 68 82 100 106 104 95 79 64 59 58 59 63 66 64 56 50 48 47 41 34 31 33 36 34 31